Private Wetterstation Wechselburg
Wetterdaten: Samstag, 13.03.2021
Datum Zeit Temp. +2m Bodentemp. Temp.+5cm Temp. Wind Windchill X Diff Temp. Feuchte +2m Feuchte +5cm Luftdruck Regen Wind Richtung Richtung Sonnenschein Taupunkt Windchill Windben
13.03.2021 00:00 7,5 C 6,6 C 6,8 C 7,2 C 5,5 C 0,0 C 63 % 67 % 1007,3 hPa 0,0 l/m 11,4 km/h (2 Bft) S-SW 202 0 min 0,9 C 3,0 C 15,9 km/h (3 Bft)
13.03.2021 00:05 6,9 C 6,7 C 6,1 C 6,5 C 4,6 C 0,0 C 66 % 72 % 1007,3 hPa 0,0 l/m 11,1 km/h (2 Bft) SW 225 0 min 1,0 C 1,9 C 11,6 km/h (2 Bft)
13.03.2021 00:10 5,9 C 6,8 C 5,3 C 5,2 C 3,7 C 0,0 C 70 % 77 % 1008,2 hPa 0,0 l/m 6,9 km/h (2 Bft) W-SW 247 0 min 0,9 C 1,9 C 7,6 km/h (2 Bft)
13.03.2021 00:15 5,5 C 6,8 C 5,0 C 4,8 C 3,3 C 0,0 C 73 % 79 % 1008,2 hPa 0,0 l/m 5,6 km/h (1 Bft) NW 315 0 min 1,1 C 1,9 C 2,9 km/h (1 Bft)
13.03.2021 00:20 5,2 C 6,8 C 4,7 C 4,5 C 3,1 C 0,0 C 75 % 80 % 1008,2 hPa 0,0 l/m 4,8 km/h (1 Bft) S 180 0 min 1,1 C 2,0 C 11,6 km/h (2 Bft)
13.03.2021 00:25 4,9 C 6,9 C 4,5 C 4,2 C 2,8 C 0,0 C 77 % 81 % 1008,2 hPa 0,0 l/m 4,7 km/h (1 Bft) O-NO 67 0 min 1,2 C 1,7 C 13,0 km/h (3 Bft)
13.03.2021 00:30 4,7 C 6,9 C 4,3 C 3,9 C 2,2 C 0,0 C 78 % 82 % 1008,2 hPa 0,0 l/m 5,8 km/h (2 Bft) W 270 0 min 1,2 C 0,6 C 12,9 km/h (3 Bft)
13.03.2021 00:35 4,7 C 6,8 C 4,3 C 3,8 C 2,1 C 0,0 C 79 % 83 % 1008,2 hPa 0,0 l/m 6,1 km/h (2 Bft) SW 225 0 min 1,4 C 0,4 C 9,3 km/h (2 Bft)
13.03.2021 00:40 4,4 C 6,9 C 4,1 C 3,5 C 1,6 C 0,0 C 80 % 84 % 1008,2 hPa 0,0 l/m 7,2 km/h (2 Bft) SW 225 0 min 1,3 C -0,6 C 8,5 km/h (2 Bft)
13.03.2021 00:45 4,3 C 7,0 C 3,9 C 3,4 C 1,6 C 0,0 C 81 % 85 % 1008,2 hPa 0,0 l/m 6,9 km/h (2 Bft) S 180 0 min 1,3 C -0,5 C 6,9 km/h (2 Bft)
13.03.2021 00:50 4,2 C 7,0 C 3,8 C 3,5 C 2,1 C 0,0 C 82 % 86 % 1008,0 hPa 0,0 l/m 5,5 km/h (1 Bft) S-SW 202 0 min 1,4 C 0,6 C 6,6 km/h (2 Bft)
13.03.2021 00:55 4,1 C 7,0 C 3,7 C 3,7 C 2,9 C 0,0 C 82 % 87 % 1008,0 hPa 0,0 l/m 3,7 km/h (1 Bft) S-SW 202 0 min 1,3 C 2,9 C 8,9 km/h (2 Bft)
13.03.2021 01:00 4,1 C 7,0 C 3,7 C 3,7 C 2,9 C 0,0 C 83 % 88 % 1008,0 hPa 0,0 l/m 3,5 km/h (1 Bft) S-SW 202 0 min 1,5 C 2,9 C 0,0 km/h (0 Bft)
13.03.2021 01:05 4,1 C 7,0 C 3,6 C 3,9 C 3,4 C 0,0 C 83 % 89 % 1008,0 hPa 0,0 l/m 2,6 km/h (1 Bft) S-SO 157 0 min 1,5 C 3,4 C 0,0 km/h (0 Bft)
13.03.2021 01:10 4,0 C 7,0 C 3,6 C 3,8 C 3,4 C 0,0 C 83 % 89 % 1008,1 hPa 0,0 l/m 0,3 km/h (0 Bft) O-SO 112 0 min 1,4 C 3,4 C 0,0 km/h (0 Bft)
13.03.2021 01:15 4,0 C 7,0 C 3,6 C 3,8 C 3,3 C 0,0 C 83 % 90 % 1008,1 hPa 0,0 l/m 0,3 km/h (0 Bft) O-SO 112 0 min 1,4 C 3,3 C 0,0 km/h (0 Bft)
13.03.2021 01:20 4,0 C 6,9 C 3,6 C 3,8 C 3,4 C 0,0 C 84 % 90 % 1008,1 hPa 0,0 l/m 1,3 km/h (1 Bft) SO 135 0 min 1,5 C 3,4 C 0,0 km/h (0 Bft)
13.03.2021 01:25 4,0 C 7,0 C 3,6 C 3,8 C 3,4 C 0,0 C 84 % 90 % 1008,1 hPa 0,0 l/m 2,3 km/h (1 Bft) W-SW 247 0 min 1,5 C 3,4 C 3,4 km/h (1 Bft)
13.03.2021 01:30 4,0 C 7,0 C 3,6 C 3,7 C 3,1 C 0,0 C 84 % 90 % 1007,8 hPa 0,0 l/m 3,2 km/h (1 Bft) S-SO 157 0 min 1,5 C 3,1 C 3,9 km/h (1 Bft)
13.03.2021 01:35 4,0 C 7,0 C 3,6 C 3,7 C 3,2 C 0,0 C 85 % 90 % 1007,8 hPa 0,0 l/m 3,1 km/h (1 Bft) S-SO 157 0 min 1,7 C 3,2 C 3,7 km/h (1 Bft)
13.03.2021 01:40 4,3 C 6,7 C 3,7 C 4,0 C 3,4 C 0,0 C 85 % 90 % 1007,8 hPa 0,0 l/m 2,3 km/h (1 Bft) S 180 0 min 2,0 C 3,4 C 4,5 km/h (1 Bft)
13.03.2021 01:45 4,3 C 6,7 C 3,9 C 4,1 C 3,6 C 0,0 C 85 % 90 % 1007,8 hPa 0,0 l/m 1,9 km/h (1 Bft) SW 225 0 min 2,0 C 3,6 C 7,6 km/h (2 Bft)
13.03.2021 01:50 4,7 C 6,7 C 4,1 C 4,5 C 4,0 C 0,0 C 84 % 89 % 1008,1 hPa 0,0 l/m 2,1 km/h (1 Bft) S 180 0 min 2,2 C 4,0 C 14,6 km/h (3 Bft)
13.03.2021 01:55 4,8 C 6,7 C 4,3 C 4,6 C 4,1 C 0,0 C 84 % 89 % 1008,1 hPa 0,0 l/m 2,7 km/h (1 Bft) S 180 0 min 2,3 C 4,1 C 0,0 km/h (0 Bft)
13.03.2021 02:00 4,9 C 6,7 C 4,4 C 4,7 C 4,2 C 0,0 C 83 % 88 % 1008,1 hPa 0,0 l/m 3,4 km/h (1 Bft) O-SO 112 0 min 2,3 C 4,2 C 3,9 km/h (1 Bft)
13.03.2021 02:05 5,1 C 6,6 C 4,4 C 4,8 C 4,2 C 0,0 C 82 % 88 % 1008,1 hPa 0,0 l/m 3,2 km/h (1 Bft) S-SO 157 0 min 2,3 C 4,2 C 15,0 km/h (3 Bft)
13.03.2021 02:10 5,1 C 6,6 C 4,4 C 4,8 C 4,3 C 0,0 C 81 % 88 % 1008,1 hPa 0,0 l/m 3,4 km/h (1 Bft) SW 225 0 min 2,1 C 4,3 C 18,5 km/h (3 Bft)
13.03.2021 02:15 5,1 C 6,6 C 4,4 C 4,8 C 4,3 C 0,0 C 81 % 88 % 1008,1 hPa 0,0 l/m 3,2 km/h (1 Bft) O 90 0 min 2,1 C 4,3 C 0,0 km/h (0 Bft)
13.03.2021 02:20 5,1 C 6,6 C 4,4 C 4,6 C 3,7 C 0,0 C 80 % 87 % 1008,1 hPa 0,0 l/m 4,5 km/h (1 Bft) SW 225 0 min 1,9 C 3,7 C 20,1 km/h (4 Bft)
13.03.2021 02:25 5,2 C 6,6 C 4,5 C 4,7 C 3,6 C 0,0 C 79 % 87 % 1008,1 hPa 0,0 l/m 5,0 km/h (1 Bft) O-SO 112 0 min 1,9 C 2,5 C 0,0 km/h (0 Bft)
13.03.2021 02:30 5,2 C 6,6 C 4,5 C 4,7 C 3,8 C 0,0 C 79 % 86 % 1007,8 hPa 0,0 l/m 4,8 km/h (1 Bft) NO 45 0 min 1,9 C 2,8 C 15,0 km/h (3 Bft)
13.03.2021 02:35 5,3 C 6,6 C 4,6 C 5,0 C 4,5 C 0,0 C 79 % 87 % 1007,8 hPa 0,0 l/m 3,4 km/h (1 Bft) S 180 0 min 2,0 C 4,5 C 2,1 km/h (1 Bft)
13.03.2021 02:40 5,2 C 6,6 C 4,5 C 4,8 C 3,9 C 0,0 C 78 % 86 % 1007,8 hPa 0,0 l/m 4,8 km/h (1 Bft) SO 135 0 min 1,7 C 2,9 C 14,2 km/h (3 Bft)
13.03.2021 02:45 5,2 C 6,6 C 4,6 C 4,6 C 3,3 C 0,0 C 78 % 86 % 1007,8 hPa 0,0 l/m 5,8 km/h (2 Bft) SW 225 0 min 1,7 C 1,8 C 15,8 km/h (3 Bft)
13.03.2021 02:50 5,2 C 6,6 C 4,6 C 4,6 C 3,4 C 0,0 C 77 % 86 % 1007,7 hPa 0,0 l/m 5,5 km/h (1 Bft) SW 225 0 min 1,5 C 2,1 C 15,3 km/h (3 Bft)
13.03.2021 02:55 5,3 C 6,6 C 4,6 C 4,8 C 3,7 C 0,0 C 77 % 86 % 1007,7 hPa 0,0 l/m 5,1 km/h (1 Bft) W-SW 247 0 min 1,6 C 2,6 C 2,7 km/h (1 Bft)
13.03.2021 03:00 5,2 C 6,6 C 4,6 C 4,7 C 3,7 C 0,0 C 77 % 86 % 1007,7 hPa 0,0 l/m 5,3 km/h (1 Bft) O 90 0 min 1,5 C 2,5 C 5,1 km/h (1 Bft)
13.03.2021 03:05 5,2 C 6,6 C 4,6 C 4,9 C 4,3 C 0,0 C 77 % 86 % 1007,7 hPa 0,0 l/m 3,9 km/h (1 Bft) N-NO 22 0 min 1,5 C 4,3 C 3,5 km/h (1 Bft)
13.03.2021 03:10 5,2 C 6,6 C 4,6 C 4,9 C 4,2 C 0,0 C 77 % 85 % 1007,2 hPa 0,0 l/m 4,0 km/h (1 Bft) S-SW 202 0 min 1,5 C 4,2 C 12,2 km/h (2 Bft)
13.03.2021 03:15 5,3 C 6,6 C 4,6 C 5,0 C 4,3 C 0,0 C 77 % 85 % 1007,2 hPa 0,0 l/m 4,2 km/h (1 Bft) O-NO 67 0 min 1,6 C 4,3 C 9,3 km/h (2 Bft)
13.03.2021 03:20 5,2 C 6,6 C 4,5 C 4,9 C 4,2 C 0,0 C 77 % 85 % 1007,2 hPa 0,0 l/m 4,3 km/h (1 Bft) S-SO 157 0 min 1,5 C 4,2 C 11,9 km/h (2 Bft)
13.03.2021 03:25 5,1 C 6,6 C 4,5 C 4,9 C 4,4 C 0,0 C 77 % 85 % 1007,2 hPa 0,0 l/m 3,9 km/h (1 Bft) S-SW 202 0 min 1,4 C 4,4 C 8,7 km/h (2 Bft)
13.03.2021 03:30 5,1 C 6,6 C 4,5 C 4,8 C 4,3 C 0,0 C 77 % 84 % 1007,5 hPa 0,0 l/m 4,2 km/h (1 Bft) SW 225 0 min 1,4 C 4,3 C 6,4 km/h (2 Bft)
13.03.2021 03:35 5,0 C 6,6 C 4,5 C 4,8 C 4,3 C 0,0 C 78 % 84 % 1007,5 hPa 0,0 l/m 4,0 km/h (1 Bft) S-SW 202 0 min 1,5 C 4,3 C 3,4 km/h (1 Bft)
13.03.2021 03:40 5,1 C 6,5 C 4,4 C 5,0 C 4,7 C 0,0 C 78 % 84 % 1007,5 hPa 0,0 l/m 3,1 km/h (1 Bft) SO 135 0 min 1,6 C 4,7 C 3,4 km/h (1 Bft)
13.03.2021 03:45 4,9 C 6,5 C 4,4 C 4,9 C 4,8 C 0,0 C 78 % 84 % 1007,5 hPa 0,0 l/m 2,7 km/h (1 Bft) SO 135 0 min 1,4 C 4,8 C 9,7 km/h (2 Bft)
13.03.2021 03:50 5,0 C 6,5 C 4,5 C 4,9 C 4,8 C 0,0 C 78 % 84 % 1007,5 hPa 0,0 l/m 2,9 km/h (1 Bft) SW 225 0 min 1,5 C 4,8 C 2,9 km/h (1 Bft)
13.03.2021 03:55 4,9 C 6,5 C 4,5 C 4,9 C 4,9 C 0,0 C 79 % 84 % 1007,5 hPa 0,0 l/m 2,9 km/h (1 Bft) O-SO 112 0 min 1,6 C 4,9 C 11,7 km/h (2 Bft)
13.03.2021 04:00 4,9 C 6,5 C 4,4 C 4,9 C 4,8 C 0,0 C 79 % 84 % 1007,5 hPa 0,0 l/m 2,7 km/h (1 Bft) O-NO 67 0 min 1,6 C 4,8 C 0,0 km/h (0 Bft)
13.03.2021 04:05 4,9 C 6,5 C 4,4 C 4,8 C 4,7 C 0,0 C 79 % 84 % 1007,5 hPa 0,0 l/m 3,1 km/h (1 Bft) O 90 0 min 1,6 C 4,7 C 9,5 km/h (2 Bft)
13.03.2021 04:10 4,9 C 6,5 C 4,3 C 4,8 C 4,6 C 0,0 C 79 % 84 % 1007,1 hPa 0,0 l/m 2,6 km/h (1 Bft) N 360 0 min 1,6 C 4,6 C 5,8 km/h (2 Bft)
13.03.2021 04:15 4,9 C 6,5 C 4,3 C 4,8 C 4,6 C 0,0 C 79 % 84 % 1007,1 hPa 0,0 l/m 2,4 km/h (1 Bft) S-SO 157 0 min 1,6 C 4,6 C 5,3 km/h (1 Bft)
13.03.2021 04:20 4,8 C 6,5 C 4,3 C 4,7 C 4,5 C 0,0 C 79 % 84 % 1007,1 hPa 0,0 l/m 1,9 km/h (1 Bft) O 90 0 min 1,5 C 4,5 C 3,2 km/h (1 Bft)
13.03.2021 04:25 4,8 C 6,5 C 4,3 C 4,7 C 4,5 C 0,0 C 79 % 84 % 1007,1 hPa 0,0 l/m 1,3 km/h (1 Bft) O-SO 112 0 min 1,5 C 4,5 C 8,4 km/h (2 Bft)
13.03.2021 04:30 4,9 C 6,5 C 4,2 C 4,8 C 4,5 C 0,0 C 79 % 84 % 1007,1 hPa 0,0 l/m 1,8 km/h (1 Bft) S 180 0 min 1,6 C 4,5 C 10,3 km/h (2 Bft)
13.03.2021 04:35 4,8 C 6,5 C 4,3 C 4,7 C 4,5 C 0,0 C 79 % 84 % 1007,1 hPa 0,0 l/m 2,7 km/h (1 Bft) SW 225 0 min 1,5 C 4,5 C 3,4 km/h (1 Bft)
13.03.2021 04:40 4,9 C 6,5 C 4,3 C 4,8 C 4,6 C 0,0 C 79 % 84 % 1007,1 hPa 0,0 l/m 2,4 km/h (1 Bft) S 180 0 min 1,6 C 4,6 C 1,6 km/h (1 Bft)
13.03.2021 04:45 4,9 C 6,5 C 4,3 C 4,8 C 4,6 C 0,0 C 79 % 84 % 1007,1 hPa 0,0 l/m 1,9 km/h (1 Bft) O-NO 67 0 min 1,6 C 4,6 C 5,1 km/h (1 Bft)
13.03.2021 04:50 4,8 C 6,5 C 4,3 C 4,7 C 4,6 C 0,0 C 79 % 84 % 1007,1 hPa 0,0 l/m 1,6 km/h (1 Bft) W 270 0 min 1,5 C 4,6 C 3,2 km/h (1 Bft)
13.03.2021 04:55 4,9 C 6,5 C 4,3 C 4,8 C 4,6 C 0,0 C 79 % 84 % 1007,1 hPa 0,0 l/m 2,1 km/h (1 Bft) NO 45 0 min 1,6 C 4,6 C 5,5 km/h (1 Bft)
13.03.2021 05:00 4,9 C 6,5 C 4,3 C 4,8 C 4,6 C 0,0 C 79 % 83 % 1007,1 hPa 0,0 l/m 2,4 km/h (1 Bft) SO 135 0 min 1,6 C 4,6 C 2,9 km/h (1 Bft)
13.03.2021 05:05 5,0 C 6,5 C 4,3 C 4,9 C 4,6 C 0,0 C 79 % 83 % 1007,1 hPa 0,0 l/m 3,1 km/h (1 Bft) W-SW 247 0 min 1,7 C 4,6 C 7,6 km/h (2 Bft)
13.03.2021 05:10 5,0 C 6,5 C 4,3 C 4,6 C 3,9 C 0,0 C 79 % 83 % 1007,1 hPa 0,0 l/m 4,0 km/h (1 Bft) S 180 0 min 1,7 C 3,9 C 6,3 km/h (2 Bft)
13.03.2021 05:15 5,0 C 6,5 C 4,2 C 4,8 C 4,3 C 0,0 C 79 % 83 % 1007,1 hPa 0,0 l/m 3,2 km/h (1 Bft) S-SO 157 0 min 1,7 C 4,3 C 9,0 km/h (2 Bft)
13.03.2021 05:20 5,1 C 6,5 C 4,3 C 4,9 C 4,5 C 0,0 C 79 % 83 % 1007,1 hPa 0,0 l/m 2,1 km/h (1 Bft) SW 225 0 min 1,8 C 4,5 C 2,9 km/h (1 Bft)
13.03.2021 05:25 5,1 C 6,5 C 4,3 C 4,9 C 4,4 C 0,0 C 79 % 83 % 1007,1 hPa 0,0 l/m 3,1 km/h (1 Bft) S-SO 157 0 min 1,8 C 4,4 C 5,3 km/h (1 Bft)
13.03.2021 05:30 5,0 C 6,5 C 4,4 C 4,8 C 4,4 C 0,0 C 79 % 83 % 1007,1 hPa 0,0 l/m 3,2 km/h (1 Bft) S 180 0 min 1,7 C 4,4 C 3,9 km/h (1 Bft)
13.03.2021 05:35 5,1 C 6,5 C 4,4 C 5,0 C 4,7 C 0,0 C 78 % 83 % 1007,1 hPa 0,0 l/m 2,6 km/h (1 Bft) O-SO 112 0 min 1,6 C 4,7 C 3,7 km/h (1 Bft)
13.03.2021 05:40 5,1 C 6,5 C 4,5 C 5,0 C 4,8 C 0,0 C 79 % 83 % 1007,1 hPa 0,0 l/m 2,9 km/h (1 Bft) S-SO 157 0 min 1,8 C 4,8 C 5,8 km/h (2 Bft)
13.03.2021 05:45 5,1 C 6,4 C 4,4 C 5,0 C 4,8 C 0,0 C 78 % 83 % 1007,1 hPa 0,0 l/m 2,7 km/h (1 Bft) S 180 0 min 1,6 C 4,8 C 6,9 km/h (2 Bft)
13.03.2021 05:50 5,1 C 6,4 C 4,5 C 4,9 C 4,6 C 0,0 C 78 % 83 % 1006,7 hPa 0,0 l/m 3,4 km/h (1 Bft) O-NO 67 0 min 1,6 C 4,6 C 8,4 km/h (2 Bft)
13.03.2021 05:55 5,1 C 6,4 C 4,4 C 4,8 C 4,3 C 0,0 C 78 % 83 % 1006,7 hPa 0,0 l/m 3,9 km/h (1 Bft) SO 135 0 min 1,6 C 4,3 C 6,8 km/h (2 Bft)
13.03.2021 06:00 5,2 C 6,4 C 4,4 C 4,8 C 4,1 C 0,0 C 78 % 83 % 1006,7 hPa 0,0 l/m 4,7 km/h (1 Bft) SO 135 0 min 1,7 C 3,2 C 4,2 km/h (1 Bft)
13.03.2021 06:05 5,2 C 6,4 C 4,5 C 4,7 C 3,7 C 0,0 C 78 % 83 % 1006,7 hPa 0,0 l/m 5,6 km/h (1 Bft) S-SO 157 0 min 1,7 C 2,4 C 9,3 km/h (2 Bft)
13.03.2021 06:10 5,3 C 6,4 C 4,5 C 4,9 C 4,2 C 0,0 C 78 % 83 % 1006,6 hPa 0,0 l/m 4,7 km/h (1 Bft) S-SO 157 0 min 1,8 C 3,3 C 8,0 km/h (2 Bft)
13.03.2021 06:15 5,3 C 6,4 C 4,6 C 5,0 C 4,3 C 0,0 C 78 % 83 % 1006,6 hPa 0,0 l/m 4,7 km/h (1 Bft) S 180 0 min 1,8 C 3,4 C 3,9 km/h (1 Bft)
13.03.2021 06:20 5,2 C 6,4 C 4,6 C 5,1 C 4,8 C 0,0 C 79 % 83 % 1006,6 hPa 0,0 l/m 3,9 km/h (1 Bft) S-SO 157 0 min 1,9 C 4,8 C 0,0 km/h (0 Bft)
13.03.2021 06:25 5,3 C 6,4 C 4,6 C 5,3 C 5,2 C 0,0 C 78 % 83 % 1006,6 hPa 0,0 l/m 2,7 km/h (1 Bft) S-SO 157 0 min 1,8 C 5,2 C 5,5 km/h (1 Bft)
13.03.2021 06:30 5,3 C 6,4 C 4,7 C 5,3 C 5,2 C 0,0 C 79 % 83 % 1006,3 hPa 0,0 l/m 2,3 km/h (1 Bft) S 180 0 min 2,0 C 5,2 C 6,8 km/h (2 Bft)
13.03.2021 06:35 5,3 C 6,4 C 4,7 C 5,3 C 5,3 C 0,0 C 79 % 83 % 1006,3 hPa 0,0 l/m 3,1 km/h (1 Bft) S 180 0 min 2,0 C 5,3 C 6,8 km/h (2 Bft)
13.03.2021 06:40 5,5 C 6,4 C 4,8 C 5,5 C 5,4 C 0,0 C 79 % 83 % 1006,3 hPa 0,0 l/m 2,9 km/h (1 Bft) W-SW 247 0 min 2,2 C 5,4 C 3,7 km/h (1 Bft)
13.03.2021 06:45 5,5 C 6,4 C 4,9 C 5,5 C 5,5 C 0,0 C 79 % 83 % 1006,3 hPa 0,0 l/m 2,1 km/h (1 Bft) S 180 0 min 2,2 C 5,5 C 0,0 km/h (0 Bft)
13.03.2021 06:50 5,5 C 6,4 C 5,0 C 5,6 C 5,6 C 0,1 C 78 % 83 % 1005,9 hPa 0,0 l/m 2,9 km/h (1 Bft) S-SO 157 0 min 2,0 C 5,6 C 0,0 km/h (0 Bft)
13.03.2021 06:55 5,7 C 6,3 C 5,0 C 5,7 C 5,7 C 0,0 C 78 % 82 % 1005,9 hPa 0,0 l/m 3,2 km/h (1 Bft) O-NO 67 0 min 2,2 C 5,7 C 0,0 km/h (0 Bft)
13.03.2021 07:00 5,7 C 6,3 C 5,1 C 5,7 C 5,7 C 0,0 C 78 % 82 % 1005,9 hPa 0,0 l/m 3,7 km/h (1 Bft) S-SO 157 0 min 2,2 C 5,7 C 3,9 km/h (1 Bft)
13.03.2021 07:05 5,9 C 6,3 C 5,2 C 5,7 C 5,2 C 0,0 C 78 % 82 % 1005,9 hPa 0,0 l/m 4,8 km/h (1 Bft) S-SO 157 0 min 2,4 C 4,4 C 11,7 km/h (2 Bft)
13.03.2021 07:10 5,9 C 6,3 C 5,3 C 5,8 C 5,7 C 0,0 C 78 % 82 % 1005,7 hPa 0,0 l/m 4,2 km/h (1 Bft) W-SW 247 0 min 2,4 C 5,7 C 4,8 km/h (1 Bft)
13.03.2021 07:15 5,9 C 6,3 C 5,4 C 5,7 C 5,3 C 0,0 C 78 % 82 % 1005,7 hPa 0,0 l/m 5,0 km/h (1 Bft) SO 135 0 min 2,4 C 4,4 C 15,3 km/h (3 Bft)
13.03.2021 07:20 5,9 C 6,3 C 5,4 C 5,8 C 5,6 C 0,0 C 78 % 81 % 1005,7 hPa 0,0 l/m 4,7 km/h (1 Bft) W-SW 247 0 min 2,4 C 4,9 C 7,4 km/h (2 Bft)
13.03.2021 07:25 6,0 C 6,3 C 5,5 C 5,8 C 5,5 C 0,0 C 78 % 81 % 1005,7 hPa 0,0 l/m 5,0 km/h (1 Bft) S 180 0 min 2,5 C 4,7 C 10,0 km/h (2 Bft)
13.03.2021 07:30 6,0 C 6,3 C 5,6 C 5,9 C 5,6 C 0,0 C 78 % 81 % 1005,5 hPa 0,0 l/m 5,1 km/h (1 Bft) S 180 0 min 2,5 C 4,7 C 7,9 km/h (2 Bft)
13.03.2021 07:35 6,1 C 6,3 C 5,6 C 5,9 C 5,5 C 0,0 C 78 % 81 % 1005,5 hPa 0,0 l/m 5,5 km/h (1 Bft) S-SO 157 0 min 2,6 C 4,5 C 10,3 km/h (2 Bft)
13.03.2021 07:40 6,1 C 6,3 C 5,7 C 6,0 C 5,7 C 0,0 C 78 % 81 % 1005,5 hPa 0,0 l/m 4,8 km/h (1 Bft) SO 135 0 min 2,6 C 5,0 C 10,0 km/h (2 Bft)
13.03.2021 07:45 6,3 C 6,3 C 5,8 C 6,2 C 6,1 C 0,0 C 78 % 81 % 1005,5 hPa 0,0 l/m 4,2 km/h (1 Bft) S-SO 157 0 min 2,8 C 6,1 C 8,4 km/h (2 Bft)
13.03.2021 07:50 6,3 C 6,3 C 6,0 C 6,2 C 5,9 C 0,0 C 77 % 80 % 1005,4 hPa 0,0 l/m 5,5 km/h (1 Bft) O-SO 112 0 min 2,6 C 4,9 C 9,3 km/h (2 Bft)
13.03.2021 07:55 6,3 C 6,3 C 6,0 C 6,0 C 5,5 C 0,0 C 77 % 80 % 1005,4 hPa 0,0 l/m 6,8 km/h (2 Bft) S 180 0 min 2,6 C 4,1 C 4,5 km/h (1 Bft)
13.03.2021 08:00 6,4 C 6,3 C 6,2 C 6,1 C 5,5 C 0,0 C 77 % 80 % 1005,4 hPa 0,0 l/m 7,2 km/h (2 Bft) S 180 0 min 2,7 C 3,9 C 22,2 km/h (4 Bft)
13.03.2021 08:05 6,4 C 6,3 C 6,2 C 6,2 C 5,9 C 0,0 C 77 % 79 % 1005,4 hPa 0,0 l/m 6,4 km/h (2 Bft) O-SO 112 0 min 2,7 C 4,6 C 10,9 km/h (2 Bft)
13.03.2021 08:10 6,5 C 6,3 C 6,3 C 6,3 C 5,9 C 0,0 C 77 % 79 % 1004,8 hPa 0,0 l/m 6,1 km/h (2 Bft) S-SW 202 0 min 2,8 C 4,7 C 10,0 km/h (2 Bft)
13.03.2021 08:15 6,7 C 6,3 C 6,3 C 6,6 C 6,3 C 0,0 C 76 % 78 % 1004,8 hPa 0,0 l/m 5,3 km/h (1 Bft) S 180 0 min 2,8 C 5,5 C 6,4 km/h (2 Bft)
13.03.2021 08:20 6,7 C 6,3 C 6,5 C 6,5 C 6,2 C 0,0 C 76 % 78 % 1004,8 hPa 0,0 l/m 6,6 km/h (2 Bft) S-SO 157 0 min 2,8 C 4,9 C 17,5 km/h (3 Bft)
13.03.2021 08:25 6,8 C 6,3 C 6,6 C 6,6 C 6,2 C 0,0 C 76 % 78 % 1004,8 hPa 0,0 l/m 7,1 km/h (2 Bft) SO 135 0 min 2,9 C 4,8 C 12,4 km/h (3 Bft)
13.03.2021 08:30 6,9 C 6,3 C 6,6 C 6,6 C 6,1 C 0,0 C 76 % 77 % 1004,8 hPa 0,0 l/m 7,2 km/h (2 Bft) W 270 0 min 3,0 C 4,6 C 19,3 km/h (3 Bft)
13.03.2021 08:35 6,8 C 6,3 C 6,7 C 6,7 C 6,5 C 0,0 C 75 % 78 % 1004,8 hPa 0,0 l/m 6,3 km/h (2 Bft) O 90 0 min 2,7 C 5,4 C 10,0 km/h (2 Bft)
13.03.2021 08:40 7,0 C 6,3 C 6,9 C 7,0 C 6,9 C 0,0 C 75 % 77 % 1004,8 hPa 0,0 l/m 5,8 km/h (2 Bft) S 180 0 min 2,9 C 6,0 C 11,9 km/h (2 Bft)
13.03.2021 08:45 7,1 C 6,3 C 7,0 C 7,1 C 7,1 C 0,0 C 75 % 77 % 1004,8 hPa 0,0 l/m 5,5 km/h (1 Bft) S-SO 157 0 min 3,0 C 6,3 C 6,9 km/h (2 Bft)
13.03.2021 08:50 7,1 C 6,3 C 7,1 C 7,2 C 7,2 C 0,1 C 75 % 76 % 1004,7 hPa 0,0 l/m 5,8 km/h (2 Bft) N-NW 337 0 min 3,0 C 6,3 C 9,8 km/h (2 Bft)
13.03.2021 08:55 7,2 C 6,3 C 7,2 C 7,6 C 7,6 C 0,4 C 75 % 77 % 1004,7 hPa 0,0 l/m 4,8 km/h (1 Bft) O-SO 112 0 min 3,1 C 7,1 C 9,0 km/h (2 Bft)
13.03.2021 09:00 7,2 C 6,3 C 7,3 C 7,8 C 7,8 C 0,6 C 75 % 76 % 1004,7 hPa 0,0 l/m 4,8 km/h (1 Bft) S-SW 202 0 min 3,1 C 7,3 C 8,2 km/h (2 Bft)
13.03.2021 09:05 7,3 C 6,3 C 7,4 C 7,3 C 7,2 C 0,0 C 75 % 76 % 1004,7 hPa 0,0 l/m 7,6 km/h (2 Bft) S-SO 157 0 min 3,2 C 5,8 C 16,3 km/h (3 Bft)
13.03.2021 09:10 7,4 C 6,4 C 7,7 C 7,6 C 7,6 C 0,2 C 75 % 76 % 1004,2 hPa 0,0 l/m 7,4 km/h (2 Bft) SW 225 0 min 3,3 C 6,3 C 25,3 km/h (4 Bft)
13.03.2021 09:15 7,6 C 6,4 C 7,8 C 7,6 C 7,6 C 0,0 C 75 % 75 % 1004,2 hPa 0,0 l/m 7,9 km/h (2 Bft) O-NO 67 0 min 3,5 C 6,2 C 14,6 km/h (3 Bft)
13.03.2021 09:20 7,6 C 6,4 C 7,9 C 8,1 C 8,1 C 0,5 C 74 % 75 % 1004,2 hPa 0,0 l/m 6,9 km/h (2 Bft) S-SO 157 0 min 3,3 C 7,0 C 14,8 km/h (3 Bft)
13.03.2021 09:25 7,7 C 6,4 C 7,8 C 8,0 C 8,0 C 0,3 C 74 % 74 % 1004,2 hPa 0,0 l/m 6,6 km/h (2 Bft) N 360 0 min 3,4 C 7,0 C 9,8 km/h (2 Bft)
13.03.2021 09:30 7,7 C 6,4 C 7,7 C 8,2 C 8,2 C 0,5 C 74 % 75 % 1004,2 hPa 0,0 l/m 5,5 km/h (1 Bft) W 270 0 min 3,4 C 7,6 C 2,9 km/h (1 Bft)
13.03.2021 09:35 7,7 C 6,4 C 7,7 C 8,4 C 8,4 C 0,7 C 74 % 75 % 1004,2 hPa 0,0 l/m 4,7 km/h (1 Bft) O-NO 67 0 min 3,4 C 8,0 C 3,4 km/h (1 Bft)
13.03.2021 09:40 7,9 C 6,4 C 7,9 C 7,9 C 7,9 C 0,0 C 74 % 75 % 1004,2 hPa 0,0 l/m 6,9 km/h (2 Bft) O-SO 112 0 min 3,6 C 6,8 C 5,8 km/h (2 Bft)
13.03.2021 09:45 7,8 C 6,4 C 8,0 C 8,1 C 8,1 C 0,3 C 74 % 74 % 1004,2 hPa 0,0 l/m 6,9 km/h (2 Bft) S-SW 202 0 min 3,5 C 7,0 C 15,4 km/h (3 Bft)
13.03.2021 09:50 7,9 C 6,4 C 8,1 C 8,3 C 8,3 C 0,4 C 74 % 74 % 1003,6 hPa 0,0 l/m 7,1 km/h (2 Bft) S-SW 202 0 min 3,6 C 7,2 C 13,4 km/h (3 Bft)
13.03.2021 09:55 8,0 C 6,4 C 8,2 C 8,2 C 8,2 C 0,2 C 73 % 74 % 1003,6 hPa 0,0 l/m 7,6 km/h (2 Bft) S 180 0 min 3,5 C 7,0 C 11,9 km/h (2 Bft)
13.03.2021 10:00 8,0 C 6,4 C 8,3 C 8,3 C 8,3 C 0,3 C 73 % 73 % 1003,6 hPa 0,0 l/m 7,1 km/h (2 Bft) SO 135 0 min 3,5 C 7,2 C 11,1 km/h (2 Bft)
13.03.2021 10:05 8,1 C 6,4 C 8,3 C 8,4 C 8,4 C 0,3 C 73 % 73 % 1003,6 hPa 0,0 l/m 7,4 km/h (2 Bft) S-SO 157 0 min 3,6 C 7,3 C 13,8 km/h (3 Bft)
13.03.2021 10:10 8,3 C 6,4 C 8,4 C 8,7 C 8,7 C 0,4 C 73 % 73 % 1003,2 hPa 0,0 l/m 6,6 km/h (2 Bft) O-NO 67 0 min 3,8 C 7,8 C 4,3 km/h (1 Bft)
13.03.2021 10:15 8,3 C 6,4 C 8,5 C 8,5 C 8,5 C 0,2 C 73 % 73 % 1003,2 hPa 0,0 l/m 7,6 km/h (2 Bft) S-SO 157 0 min 3,8 C 7,3 C 19,6 km/h (3 Bft)
13.03.2021 10:20 8,3 C 6,4 C 8,5 C 8,5 C 8,5 C 0,2 C 73 % 73 % 1003,2 hPa 0,0 l/m 7,4 km/h (2 Bft) S 180 0 min 3,8 C 7,4 C 5,0 km/h (1 Bft)
13.03.2021 10:25 8,3 C 6,4 C 8,6 C 8,6 C 8,6 C 0,3 C 73 % 73 % 1003,2 hPa 0,0 l/m 7,6 km/h (2 Bft) W-SW 247 0 min 3,8 C 7,5 C 12,7 km/h (3 Bft)
13.03.2021 10:30 8,4 C 6,4 C 8,6 C 8,8 C 8,8 C 0,4 C 73 % 73 % 1002,9 hPa 0,0 l/m 6,8 km/h (2 Bft) NW 315 0 min 3,8 C 7,9 C 8,5 km/h (2 Bft)
13.03.2021 10:35 8,4 C 6,4 C 8,6 C 8,8 C 8,2 C 0,4 C 72 % 73 % 1002,9 hPa 0,0 l/m 9,2 km/h (2 Bft) SW 225 0 min 3,7 C 6,6 C 8,5 km/h (2 Bft)
13.03.2021 10:40 8,5 C 6,4 C 8,6 C 8,5 C 7,9 C 0,0 C 73 % 72 % 1002,9 hPa 0,0 l/m 10,1 km/h (2 Bft) W 270 0 min 3,9 C 6,1 C 29,9 km/h (5 Bft)
13.03.2021 10:45 8,4 C 6,5 C 8,7 C 8,6 C 8,4 C 0,2 C 72 % 73 % 1002,9 hPa 0,0 l/m 8,2 km/h (2 Bft) S 180 0 min 3,7 C 7,1 C 24,6 km/h (4 Bft)
13.03.2021 10:50 8,5 C 6,5 C 8,6 C 8,7 C 8,2 C 0,2 C 72 % 72 % 1002,7 hPa 0,0 l/m 8,5 km/h (2 Bft) S 180 0 min 3,7 C 6,8 C 8,2 km/h (2 Bft)
13.03.2021 10:55 8,5 C 6,5 C 8,6 C 8,5 C 7,9 C 0,0 C 72 % 73 % 1002,7 hPa 0,0 l/m 9,8 km/h (2 Bft) NW 315 0 min 3,7 C 6,2 C 14,2 km/h (3 Bft)
13.03.2021 11:00 8,5 C 6,5 C 8,6 C 8,5 C 8,4 C 0,0 C 72 % 72 % 1002,7 hPa 0,0 l/m 7,2 km/h (2 Bft) S 180 0 min 3,7 C 7,3 C 10,8 km/h (2 Bft)
13.03.2021 11:05 8,5 C 6,5 C 8,6 C 8,6 C 8,6 C 0,1 C 72 % 72 % 1002,7 hPa 0,0 l/m 6,8 km/h (2 Bft) S-SO 157 0 min 3,7 C 7,6 C 8,5 km/h (2 Bft)
13.03.2021 11:10 8,7 C 6,5 C 8,6 C 8,6 C 8,4 C 0,0 C 71 % 72 % 1001,7 hPa 0,0 l/m 7,2 km/h (2 Bft) SO 135 0 min 3,7 C 7,3 C 6,4 km/h (2 Bft)
13.03.2021 11:15 8,7 C 6,5 C 8,5 C 8,7 C 8,6 C 0,0 C 71 % 72 % 1001,7 hPa 0,0 l/m 6,8 km/h (2 Bft) W-SW 247 0 min 3,7 C 7,6 C 9,5 km/h (2 Bft)
13.03.2021 11:20 8,7 C 6,5 C 8,5 C 8,6 C 8,5 C 0,0 C 71 % 72 % 1001,7 hPa 0,0 l/m 7,1 km/h (2 Bft) S-SO 157 0 min 3,7 C 7,5 C 13,5 km/h (3 Bft)
13.03.2021 11:25 8,8 C 6,5 C 8,7 C 8,8 C 8,8 C 0,0 C 70 % 70 % 1001,7 hPa 0,0 l/m 7,4 km/h (2 Bft) N-NW 337 0 min 3,6 C 7,7 C 10,6 km/h (2 Bft)
13.03.2021 11:30 8,8 C 6,5 C 9,0 C 9,2 C 9,2 C 0,4 C 70 % 71 % 1002,1 hPa 0,0 l/m 7,2 km/h (2 Bft) W-SW 247 0 min 3,6 C 8,2 C 18,8 km/h (3 Bft)
13.03.2021 11:35 8,9 C 6,5 C 9,1 C 9,4 C 8,9 C 0,5 C 70 % 70 % 1002,1 hPa 0,0 l/m 8,9 km/h (2 Bft) S-SW 202 0 min 3,7 C 7,5 C 11,3 km/h (2 Bft)
13.03.2021 11:40 9,1 C 6,5 C 9,1 C 9,2 C 8,7 C 0,1 C 70 % 69 % 1002,1 hPa 0,0 l/m 10,1 km/h (2 Bft) S 180 0 min 3,9 C 7,1 C 14,0 km/h (3 Bft)
13.03.2021 11:45 9,1 C 6,5 C 9,2 C 9,3 C 9,2 C 0,2 C 69 % 69 % 1002,1 hPa 0,0 l/m 7,7 km/h (2 Bft) SO 135 0 min 3,7 C 8,1 C 14,6 km/h (3 Bft)
13.03.2021 11:50 9,2 C 6,5 C 9,5 C 9,6 C 9,1 C 0,4 C 68 % 68 % 1001,6 hPa 0,0 l/m 9,8 km/h (2 Bft) S 180 0 min 3,6 C 7,6 C 33,0 km/h (5 Bft)
13.03.2021 11:55 9,3 C 6,6 C 9,6 C 9,8 C 9,5 C 0,5 C 68 % 68 % 1001,6 hPa 0,0 l/m 10,0 km/h (2 Bft) N-NO 22 0 min 3,7 C 8,0 C 5,5 km/h (1 Bft)
13.03.2021 12:00 9,4 C 6,6 C 9,9 C 10,2 C 10,0 C 0,8 C 68 % 66 % 1001,6 hPa 0,0 l/m 9,8 km/h (2 Bft) S 180 0 min 3,8 C 8,7 C 17,4 km/h (3 Bft)
13.03.2021 12:05 9,5 C 6,6 C 10,0 C 10,5 C 10,2 C 1,0 C 68 % 66 % 1001,6 hPa 0,0 l/m 9,7 km/h (2 Bft) W-SW 247 0 min 3,9 C 10,2 C 23,3 km/h (4 Bft)
13.03.2021 12:10 9,6 C 6,6 C 10,0 C 10,2 C 10,2 C 0,6 C 67 % 66 % 1000,8 hPa 0,0 l/m 9,7 km/h (2 Bft) W-SW 247 0 min 3,8 C 10,2 C 23,3 km/h (4 Bft)
13.03.2021 12:15 9,6 C 6,6 C 10,0 C 10,2 C 10,2 C 0,6 C 67 % 66 % 1000,8 hPa 0,0 l/m 9,7 km/h (2 Bft) W-SW 247 0 min 3,8 C 10,2 C 23,3 km/h (4 Bft)
13.03.2021 12:20 9,9 C 6,6 C 10,4 C 10,2 C 10,2 C 0,3 C 65 % 64 % 1000,8 hPa 0,0 l/m 11,3 km/h (2 Bft) N-NW 337 0 min 3,6 C 10,2 C 24,6 km/h (4 Bft)
13.03.2021 12:25 10,1 C 6,6 C 10,5 C 10,8 C 10,5 C 0,7 C 65 % 63 % 1000,8 hPa 0,0 l/m 11,7 km/h (2 Bft) S-SO 157 0 min 3,8 C 10,5 C 16,1 km/h (3 Bft)
13.03.2021 12:30 10,2 C 6,6 C 10,7 C 11,1 C 10,7 C 0,9 C 64 % 63 % 1000,8 hPa 0,0 l/m 13,0 km/h (3 Bft) NO 45 0 min 3,7 C 10,7 C 24,6 km/h (4 Bft)
13.03.2021 12:35 10,2 C 6,6 C 10,8 C 11,3 C 10,9 C 1,1 C 64 % 62 % 1000,8 hPa 0,0 l/m 13,0 km/h (3 Bft) O 90 0 min 3,7 C 10,9 C 21,9 km/h (4 Bft)
13.03.2021 12:40 10,3 C 6,6 C 10,9 C 10,9 C 10,9 C 0,6 C 63 % 62 % 1000,8 hPa 0,0 l/m 13,4 km/h (3 Bft) S-SO 157 0 min 3,6 C 10,9 C 19,3 km/h (3 Bft)
13.03.2021 12:45 10,4 C 6,7 C 11,0 C 11,5 C 11,4 C 1,1 C 64 % 63 % 1000,8 hPa 0,0 l/m 9,8 km/h (2 Bft) S 180 0 min 3,9 C 11,4 C 12,2 km/h (2 Bft)
13.03.2021 12:50 10,5 C 6,7 C 10,9 C 11,8 C 11,6 C 1,3 C 63 % 62 % 1000,9 hPa 0,0 l/m 8,7 km/h (2 Bft) S-SO 157 0 min 3,8 C 11,6 C 11,1 km/h (2 Bft)
13.03.2021 12:55 10,4 C 6,7 C 11,1 C 11,9 C 11,7 C 1,5 C 63 % 62 % 1000,9 hPa 0,0 l/m 9,5 km/h (2 Bft) S-SO 157 0 min 3,7 C 11,7 C 21,9 km/h (4 Bft)
13.03.2021 13:00 10,7 C 6,7 C 11,2 C 12,2 C 11,9 C 1,5 C 63 % 61 % 1000,9 hPa 0,0 l/m 11,4 km/h (2 Bft) S 180 0 min 3,9 C 11,9 C 42,8 km/h (6 Bft)
13.03.2021 13:05 10,7 C 6,7 C 11,1 C 12,1 C 11,6 C 1,4 C 63 % 61 % 1000,9 hPa 0,0 l/m 12,1 km/h (2 Bft) NO 45 0 min 3,9 C 11,6 C 9,0 km/h (2 Bft)
13.03.2021 13:10 10,7 C 6,7 C 10,9 C 11,7 C 11,1 C 1,0 C 62 % 61 % 1001,1 hPa 0,0 l/m 12,1 km/h (2 Bft) O-SO 112 0 min 3,7 C 11,1 C 23,8 km/h (4 Bft)
13.03.2021 13:15 10,5 C 6,7 C 10,8 C 11,3 C 10,8 C 0,8 C 63 % 62 % 1001,1 hPa 0,0 l/m 11,3 km/h (2 Bft) S-SW 202 0 min 3,8 C 10,8 C 17,2 km/h (3 Bft)
13.03.2021 13:20 10,5 C 6,7 C 10,9 C 11,4 C 11,2 C 0,9 C 64 % 63 % 1001,1 hPa 0,0 l/m 9,5 km/h (2 Bft) O 90 0 min 4,0 C 11,2 C 13,5 km/h (3 Bft)
13.03.2021 13:25 10,5 C 6,7 C 10,8 C 11,4 C 11,1 C 0,9 C 64 % 62 % 1001,1 hPa 0,0 l/m 8,7 km/h (2 Bft) S-SO 157 0 min 4,0 C 11,1 C 25,7 km/h (4 Bft)
13.03.2021 13:30 10,4 C 6,7 C 10,7 C 11,1 C 10,6 C 0,7 C 64 % 63 % 1000,2 hPa 0,0 l/m 10,5 km/h (2 Bft) SW 225 0 min 3,9 C 10,6 C 42,5 km/h (6 Bft)
13.03.2021 13:35 10,5 C 6,8 C 10,6 C 10,7 C 10,1 C 0,2 C 64 % 63 % 1000,2 hPa 0,0 l/m 11,9 km/h (2 Bft) W-SW 247 0 min 4,0 C 10,1 C 12,2 km/h (2 Bft)
13.03.2021 13:40 10,4 C 6,8 C 10,7 C 10,5 C 10,0 C 0,1 C 64 % 64 % 1000,2 hPa 0,0 l/m 13,0 km/h (3 Bft) SO 135 0 min 3,9 C 8,2 C 14,6 km/h (3 Bft)
13.03.2021 13:45 10,4 C 6,8 C 10,6 C 10,6 C 10,4 C 0,2 C 65 % 64 % 1000,2 hPa 0,0 l/m 10,3 km/h (2 Bft) W-NW 292 0 min 4,1 C 10,4 C 5,1 km/h (1 Bft)
13.03.2021 13:50 10,3 C 6,8 C 10,5 C 10,8 C 10,6 C 0,5 C 65 % 64 % 1000,1 hPa 0,0 l/m 8,9 km/h (2 Bft) SW 225 0 min 4,0 C 10,6 C 10,9 km/h (2 Bft)
13.03.2021 13:55 10,3 C 6,8 C 10,5 C 10,8 C 10,5 C 0,5 C 65 % 64 % 1000,1 hPa 0,0 l/m 8,9 km/h (2 Bft) SW 225 0 min 4,0 C 10,5 C 29,0 km/h (5 Bft)
13.03.2021 14:00 10,3 C 6,8 C 10,5 C 10,7 C 10,2 C 0,4 C 65 % 65 % 1000,1 hPa 0,0 l/m 9,7 km/h (2 Bft) O-SO 112 0 min 4,0 C 10,2 C 8,9 km/h (2 Bft)
13.03.2021 14:05 10,3 C 6,8 C 10,4 C 10,5 C 10,1 C 0,2 C 66 % 65 % 1000,1 hPa 0,0 l/m 10,9 km/h (2 Bft) S 180 0 min 4,2 C 10,1 C 20,1 km/h (4 Bft)
13.03.2021 14:10 10,1 C 6,8 C 10,5 C 10,4 C 9,8 C 0,3 C 66 % 65 % 999,9 hPa 0,0 l/m 12,7 km/h (3 Bft) S-SW 202 0 min 4,0 C 8,0 C 7,7 km/h (2 Bft)
13.03.2021 14:15 10,0 C 6,8 C 10,3 C 10,1 C 9,3 C 0,1 C 66 % 66 % 999,9 hPa 0,0 l/m 15,1 km/h (3 Bft) NW 315 0 min 3,9 C 7,0 C 16,6 km/h (3 Bft)
13.03.2021 14:20 9,9 C 6,8 C 10,1 C 9,9 C 9,1 C 0,0 C 66 % 66 % 999,9 hPa 0,0 l/m 14,3 km/h (3 Bft) S-SW 202 0 min 3,9 C 6,9 C 18,7 km/h (3 Bft)
13.03.2021 14:25 9,9 C 6,9 C 10,2 C 9,9 C 9,5 C 0,0 C 67 % 67 % 999,9 hPa 0,0 l/m 10,9 km/h (2 Bft) SO 135 0 min 4,1 C 7,9 C 7,7 km/h (2 Bft)
13.03.2021 14:30 10,1 C 6,9 C 10,4 C 10,9 C 10,9 C 0,8 C 68 % 66 % 999,9 hPa 0,0 l/m 7,2 km/h (2 Bft) S-SO 157 0 min 4,5 C 10,9 C 14,3 km/h (3 Bft)
13.03.2021 14:35 10,0 C 6,9 C 10,4 C 11,1 C 11,1 C 1,1 C 68 % 67 % 999,9 hPa 0,0 l/m 7,4 km/h (2 Bft) W 270 0 min 4,4 C 11,1 C 18,0 km/h (3 Bft)
13.03.2021 14:40 10,0 C 6,9 C 10,4 C 11,5 C 11,3 C 1,5 C 68 % 67 % 999,9 hPa 0,0 l/m 9,8 km/h (2 Bft) S 180 0 min 4,4 C 11,3 C 25,3 km/h (4 Bft)
13.03.2021 14:45 10,0 C 6,9 C 10,4 C 11,7 C 11,5 C 1,7 C 68 % 67 % 999,9 hPa 0,0 l/m 9,2 km/h (2 Bft) NO 45 0 min 4,4 C 11,5 C 8,2 km/h (2 Bft)
13.03.2021 14:50 9,9 C 6,9 C 10,3 C 11,5 C 11,1 C 1,6 C 69 % 68 % 999,8 hPa 0,0 l/m 8,5 km/h (2 Bft) NO 45 0 min 4,5 C 11,1 C 20,1 km/h (4 Bft)
13.03.2021 14:55 9,8 C 6,9 C 10,3 C 11,2 C 10,9 C 1,4 C 69 % 67 % 999,8 hPa 0,0 l/m 8,9 km/h (2 Bft) O-SO 112 0 min 4,4 C 10,9 C 20,9 km/h (4 Bft)
13.03.2021 15:00 9,9 C 6,9 C 10,4 C 11,4 C 11,2 C 1,5 C 69 % 68 % 999,8 hPa 0,0 l/m 8,7 km/h (2 Bft) S 180 0 min 4,5 C 11,2 C 7,7 km/h (2 Bft)
13.03.2021 15:05 9,9 C 7,0 C 10,4 C 11,3 C 11,3 C 1,4 C 69 % 68 % 999,8 hPa 0,0 l/m 7,4 km/h (2 Bft) N 360 0 min 4,5 C 11,3 C 14,0 km/h (3 Bft)
13.03.2021 15:10 9,9 C 7,0 C 10,3 C 11,3 C 11,3 C 1,4 C 69 % 68 % 999,9 hPa 0,0 l/m 8,9 km/h (2 Bft) S 180 0 min 4,5 C 11,3 C 19,2 km/h (3 Bft)
13.03.2021 15:15 9,9 C 7,0 C 10,2 C 11,4 C 10,9 C 1,5 C 69 % 69 % 999,9 hPa 0,0 l/m 10,5 km/h (2 Bft) N-NO 22 0 min 4,5 C 10,9 C 16,9 km/h (3 Bft)
13.03.2021 15:20 9,8 C 7,0 C 10,1 C 11,4 C 11,1 C 1,6 C 70 % 69 % 999,9 hPa 0,0 l/m 10,5 km/h (2 Bft) S-SO 157 0 min 4,6 C 11,1 C 12,9 km/h (3 Bft)
13.03.2021 15:25 9,8 C 7,0 C 9,9 C 11,1 C 11,1 C 1,3 C 70 % 70 % 999,9 hPa 0,0 l/m 9,0 km/h (2 Bft) NO 45 0 min 4,6 C 11,1 C 10,9 km/h (2 Bft)
13.03.2021 15:30 9,5 C 7,0 C 9,5 C 10,5 C 9,7 C 1,0 C 70 % 71 % 1000,1 hPa 0,0 l/m 9,0 km/h (2 Bft) S 180 0 min 4,3 C 8,5 C 7,1 km/h (2 Bft)
13.03.2021 15:35 9,3 C 7,1 C 9,3 C 9,7 C 9,1 C 0,4 C 71 % 72 % 1000,1 hPa 0,0 l/m 9,3 km/h (2 Bft) SO 135 0 min 4,3 C 7,7 C 12,4 km/h (3 Bft)
13.03.2021 15:40 9,1 C 7,1 C 9,0 C 9,1 C 8,5 C 0,0 C 72 % 73 % 1000,1 hPa 0,0 l/m 9,0 km/h (2 Bft) O-NO 67 0 min 4,3 C 7,0 C 11,1 km/h (2 Bft)
13.03.2021 15:45 9,0 C 7,1 C 8,8 C 8,9 C 8,0 C 0,0 C 73 % 74 % 1000,1 hPa 0,0 l/m 8,5 km/h (2 Bft) S-SO 157 0 min 4,4 C 6,5 C 12,6 km/h (3 Bft)
13.03.2021 15:50 8,8 C 7,1 C 8,6 C 8,3 C 7,3 C 0,0 C 73 % 75 % 999,9 hPa 0,0 l/m 7,1 km/h (2 Bft) NW 315 0 min 4,2 C 6,1 C 9,0 km/h (2 Bft)
13.03.2021 15:55 8,6 C 7,1 C 8,3 C 8,2 C 6,7 C 0,0 C 74 % 76 % 999,9 hPa 0,0 l/m 7,7 km/h (2 Bft) O-SO 112 0 min 4,2 C 5,2 C 11,9 km/h (2 Bft)
13.03.2021 16:00 8,5 C 7,1 C 8,1 C 8,1 C 6,8 C 0,0 C 74 % 76 % 999,9 hPa 0,0 l/m 7,7 km/h (2 Bft) S 180 0 min 4,1 C 5,3 C 9,3 km/h (2 Bft)
13.03.2021 16:05 8,5 C 7,1 C 8,1 C 8,1 C 6,6 C 0,0 C 73 % 74 % 999,9 hPa 0,0 l/m 10,1 km/h (2 Bft) S-SO 157 0 min 3,9 C 4,5 C 21,1 km/h (4 Bft)
13.03.2021 16:10 8,4 C 7,2 C 7,9 C 7,8 C 5,5 C 0,0 C 73 % 77 % 1000,7 hPa 0,0 l/m 12,6 km/h (3 Bft) S 180 0 min 3,8 C 2,8 C 19,6 km/h (3 Bft)
13.03.2021 16:15 8,0 C 7,2 C 7,8 C 7,4 C 5,4 C 0,0 C 74 % 80 % 1000,7 hPa 0,0 l/m 11,3 km/h (2 Bft) SW 225 0 min 3,7 C 2,9 C 9,7 km/h (2 Bft)
13.03.2021 16:20 7,7 C 7,2 C 7,8 C 7,3 C 6,2 C 0,0 C 78 % 80 % 1000,7 hPa 0,0 l/m 11,4 km/h (2 Bft) SW 225 0 min 4,1 C 3,8 C 6,1 km/h (2 Bft)
13.03.2021 16:25 7,9 C 7,2 C 7,9 C 7,7 C 7,1 C 0,0 C 78 % 80 % 1000,7 hPa 0,0 l/m 10,3 km/h (2 Bft) SW 225 0 min 4,3 C 5,1 C 13,0 km/h (3 Bft)
13.03.2021 16:30 8,0 C 7,2 C 7,9 C 8,0 C 7,7 C 0,0 C 76 % 77 % 1000,5 hPa 0,0 l/m 10,1 km/h (2 Bft) W-SW 247 0 min 4,0 C 5,9 C 13,2 km/h (3 Bft)
13.03.2021 16:35 8,2 C 7,1 C 8,1 C 8,2 C 7,2 C 0,0 C 72 % 72 % 1000,5 hPa 0,0 l/m 13,8 km/h (3 Bft) S-SW 202 0 min 3,5 C 4,6 C 21,2 km/h (4 Bft)
13.03.2021 16:40 8,4 C 7,2 C 8,2 C 8,0 C 7,2 C 0,0 C 67 % 69 % 1000,5 hPa 0,0 l/m 16,9 km/h (3 Bft) S-SW 202 0 min 2,6 C 4,2 C 15,6 km/h (3 Bft)
13.03.2021 16:45 8,5 C 7,2 C 8,1 C 8,3 C 7,1 C 0,0 C 67 % 69 % 1000,5 hPa 0,0 l/m 15,1 km/h (3 Bft) SW 225 0 min 2,7 C 4,3 C 13,2 km/h (3 Bft)
13.03.2021 16:50 8,3 C 7,2 C 7,8 C 8,0 C 6,4 C 0,0 C 67 % 69 % 1000,4 hPa 0,0 l/m 14,5 km/h (3 Bft) SW 225 0 min 2,5 C 3,5 C 23,0 km/h (4 Bft)
13.03.2021 16:55 8,1 C 7,1 C 7,7 C 7,7 C 5,8 C 0,0 C 66 % 69 % 1000,4 hPa 0,0 l/m 15,9 km/h (3 Bft) S-SW 202 0 min 2,1 C 2,6 C 15,9 km/h (3 Bft)
13.03.2021 17:00 8,0 C 7,1 C 7,6 C 7,5 C 5,7 C 0,0 C 66 % 68 % 1000,4 hPa 0,0 l/m 15,3 km/h (3 Bft) W 270 0 min 2,0 C 2,6 C 14,2 km/h (3 Bft)
13.03.2021 17:05 8,0 C 7,1 C 7,6 C 7,5 C 5,8 C 0,0 C 66 % 68 % 1000,4 hPa 0,0 l/m 14,6 km/h (3 Bft) S 180 0 min 2,0 C 2,8 C 4,2 km/h (1 Bft)
13.03.2021 17:10 7,9 C 7,1 C 7,5 C 7,4 C 5,7 C 0,0 C 66 % 68 % 1000,6 hPa 0,0 l/m 13,8 km/h (3 Bft) NO 45 0 min 1,9 C 2,8 C 12,2 km/h (2 Bft)
13.03.2021 17:15 7,9 C 7,1 C 7,5 C 7,4 C 5,9 C 0,0 C 66 % 67 % 1000,6 hPa 0,0 l/m 11,6 km/h (2 Bft) W-SW 247 0 min 1,9 C 3,4 C 5,8 km/h (2 Bft)
13.03.2021 17:20 7,7 C 7,1 C 7,3 C 7,3 C 5,7 C 0,0 C 66 % 67 % 1000,6 hPa 0,0 l/m 11,6 km/h (2 Bft) S-SW 202 0 min 1,8 C 3,2 C 25,3 km/h (4 Bft)
13.03.2021 17:25 7,7 C 7,1 C 7,3 C 7,2 C 5,6 C 0,0 C 65 % 67 % 1000,6 hPa 0,0 l/m 11,9 km/h (2 Bft) S 180 0 min 1,5 C 3,0 C 11,9 km/h (2 Bft)
13.03.2021 17:30 7,7 C 7,1 C 7,2 C 7,2 C 5,4 C 0,0 C 65 % 67 % 1000,6 hPa 0,0 l/m 12,7 km/h (3 Bft) SW 225 0 min 1,5 C 2,6 C 23,5 km/h (4 Bft)
13.03.2021 17:35 7,7 C 7,1 C 7,3 C 7,3 C 6,1 C 0,0 C 66 % 67 % 1000,6 hPa 0,0 l/m 10,9 km/h (2 Bft) S-SW 202 0 min 1,8 C 3,8 C 11,9 km/h (2 Bft)
13.03.2021 17:40 7,7 C 7,1 C 7,3 C 7,5 C 6,9 C 0,0 C 66 % 68 % 1000,6 hPa 0,0 l/m 9,2 km/h (2 Bft) N-NO 22 0 min 1,8 C 5,1 C 13,7 km/h (3 Bft)
13.03.2021 17:45 7,6 C 7,2 C 7,3 C 7,5 C 7,0 C 0,0 C 66 % 68 % 1000,6 hPa 0,0 l/m 8,5 km/h (2 Bft) S-SO 157 0 min 1,7 C 5,4 C 8,0 km/h (2 Bft)
13.03.2021 17:50 7,7 C 7,2 C 7,2 C 7,5 C 7,1 C 0,0 C 66 % 68 % 1000,4 hPa 0,0 l/m 7,4 km/h (2 Bft) W 270 0 min 1,8 C 5,7 C 19,2 km/h (3 Bft)
13.03.2021 17:55 7,5 C 7,1 C 7,0 C 7,4 C 7,1 C 0,0 C 66 % 68 % 1000,4 hPa 0,0 l/m 6,8 km/h (2 Bft) NO 45 0 min 1,6 C 5,9 C 4,0 km/h (1 Bft)
13.03.2021 18:00 7,5 C 7,1 C 6,8 C 7,1 C 6,2 C 0,0 C 67 % 69 % 1000,4 hPa 0,0 l/m 7,2 km/h (2 Bft) S-SO 157 0 min 1,8 C 4,8 C 17,7 km/h (3 Bft)
13.03.2021 18:05 7,4 C 7,1 C 6,8 C 6,9 C 6,0 C 0,0 C 67 % 70 % 1000,4 hPa 0,0 l/m 7,2 km/h (2 Bft) N 360 0 min 1,7 C 4,5 C 4,7 km/h (1 Bft)
13.03.2021 18:10 7,2 C 7,1 C 6,6 C 6,8 C 5,4 C 0,0 C 67 % 70 % 1000,4 hPa 0,0 l/m 8,4 km/h (2 Bft) W-NW 292 0 min 1,5 C 3,5 C 1,9 km/h (1 Bft)
13.03.2021 18:15 7,2 C 7,1 C 6,5 C 6,6 C 5,5 C 0,0 C 68 % 70 % 1000,4 hPa 0,0 l/m 6,8 km/h (2 Bft) S-SW 202 0 min 1,7 C 4,1 C 10,8 km/h (2 Bft)
13.03.2021 18:20 7,1 C 7,1 C 6,3 C 6,5 C 5,3 C 0,0 C 68 % 71 % 1000,4 hPa 0,0 l/m 6,8 km/h (2 Bft) W-SW 247 0 min 1,6 C 3,8 C 15,6 km/h (3 Bft)
13.03.2021 18:25 7,1 C 7,1 C 6,3 C 6,5 C 5,2 C 0,0 C 68 % 71 % 1000,4 hPa 0,0 l/m 6,6 km/h (2 Bft) SO 135 0 min 1,6 C 3,8 C 6,6 km/h (2 Bft)
13.03.2021 18:30 7,0 C 7,1 C 6,3 C 6,5 C 5,5 C 0,0 C 68 % 72 % 1001,1 hPa 0,0 l/m 5,5 km/h (1 Bft) O-NO 67 0 min 1,5 C 4,5 C 15,9 km/h (3 Bft)
13.03.2021 18:35 6,9 C 7,1 C 6,3 C 6,4 C 5,4 C 0,0 C 69 % 72 % 1001,1 hPa 0,0 l/m 5,8 km/h (2 Bft) S-SO 157 0 min 1,6 C 4,2 C 9,7 km/h (2 Bft)
13.03.2021 18:40 6,8 C 7,1 C 6,2 C 6,2 C 5,0 C 0,0 C 69 % 72 % 1001,1 hPa 0,0 l/m 6,9 km/h (2 Bft) S-SO 157 0 min 1,5 C 3,4 C 9,5 km/h (2 Bft)
13.03.2021 18:45 6,8 C 7,1 C 6,1 C 6,3 C 5,3 C 0,0 C 69 % 72 % 1001,1 hPa 0,0 l/m 5,5 km/h (1 Bft) O-SO 112 0 min 1,5 C 4,2 C 5,8 km/h (2 Bft)
13.03.2021 18:50 6,8 C 7,1 C 6,1 C 6,2 C 5,1 C 0,0 C 70 % 73 % 1001,3 hPa 0,0 l/m 6,1 km/h (2 Bft) W-NW 292 0 min 1,7 C 3,8 C 4,3 km/h (1 Bft)
13.03.2021 18:55 6,7 C 7,1 C 5,9 C 6,1 C 4,9 C 0,0 C 70 % 73 % 1001,3 hPa 0,0 l/m 6,8 km/h (2 Bft) W 270 0 min 1,6 C 3,4 C 5,1 km/h (1 Bft)
13.03.2021 19:00 6,7 C 7,1 C 5,8 C 6,2 C 5,1 C 0,0 C 70 % 74 % 1001,3 hPa 0,0 l/m 5,5 km/h (1 Bft) W-NW 292 0 min 1,6 C 4,0 C 12,2 km/h (2 Bft)
13.03.2021 19:05 6,7 C 7,1 C 5,8 C 6,0 C 4,7 C 0,0 C 70 % 74 % 1001,3 hPa 0,0 l/m 6,4 km/h (2 Bft) S 180 0 min 1,6 C 3,2 C 10,6 km/h (2 Bft)
13.03.2021 19:10 6,7 C 7,1 C 5,8 C 6,2 C 5,1 C 0,0 C 70 % 74 % 1001,8 hPa 0,0 l/m 5,6 km/h (1 Bft) S 180 0 min 1,6 C 4,0 C 6,3 km/h (2 Bft)
13.03.2021 19:15 6,7 C 7,1 C 5,9 C 6,2 C 5,2 C 0,0 C 70 % 73 % 1001,8 hPa 0,0 l/m 5,5 km/h (1 Bft) W-SW 247 0 min 1,6 C 4,1 C 10,0 km/h (2 Bft)
13.03.2021 19:20 6,7 C 7,0 C 5,8 C 6,0 C 4,7 C 0,0 C 70 % 73 % 1001,8 hPa 0,0 l/m 7,4 km/h (2 Bft) W 270 0 min 1,6 C 2,9 C 21,7 km/h (4 Bft)
13.03.2021 19:25 6,6 C 7,0 C 5,9 C 6,0 C 4,7 C 0,0 C 70 % 74 % 1001,8 hPa 0,0 l/m 8,4 km/h (2 Bft) S 180 0 min 1,5 C 2,7 C 7,9 km/h (2 Bft)
13.03.2021 19:30 6,6 C 7,0 C 6,1 C 6,2 C 4,6 C 0,0 C 70 % 74 % 1002,1 hPa 0,0 l/m 9,3 km/h (2 Bft) SW 225 0 min 1,5 C 2,3 C 11,7 km/h (2 Bft)
13.03.2021 19:35 6,6 C 7,0 C 5,9 C 6,0 C 4,0 C 0,0 C 70 % 74 % 1002,1 hPa 0,0 l/m 10,6 km/h (2 Bft) O 90 0 min 1,5 C 1,3 C 1,9 km/h (1 Bft)
13.03.2021 19:40 6,5 C 7,0 C 5,7 C 5,8 C 3,6 C 0,0 C 71 % 75 % 1002,1 hPa 0,0 l/m 10,5 km/h (2 Bft) S-SW 202 0 min 1,6 C 0,9 C 12,6 km/h (3 Bft)
13.03.2021 19:45 6,5 C 7,0 C 5,5 C 5,8 C 4,3 C 0,0 C 72 % 76 % 1002,1 hPa 0,0 l/m 6,0 km/h (2 Bft) S 180 0 min 1,8 C 2,9 C 11,9 km/h (2 Bft)
13.03.2021 19:50 6,3 C 7,0 C 5,3 C 5,7 C 4,6 C 0,0 C 73 % 77 % 1002,8 hPa 0,0 l/m 4,8 km/h (1 Bft) W-SW 247 0 min 1,8 C 3,7 C 5,6 km/h (1 Bft)
13.03.2021 19:55 6,1 C 7,0 C 5,3 C 5,5 C 4,3 C 0,0 C 73 % 78 % 1002,8 hPa 0,0 l/m 5,6 km/h (1 Bft) SW 225 0 min 1,6 C 3,1 C 4,5 km/h (1 Bft)
13.03.2021 20:00 6,0 C 7,0 C 5,3 C 5,4 C 4,1 C 0,0 C 74 % 78 % 1002,8 hPa 0,0 l/m 6,4 km/h (2 Bft) W 270 0 min 1,7 C 2,6 C 4,8 km/h (1 Bft)
13.03.2021 20:05 6,0 C 7,0 C 5,3 C 5,5 C 3,3 C 0,0 C 74 % 77 % 1002,8 hPa 0,0 l/m 11,1 km/h (2 Bft) S 180 0 min 1,7 C 0,4 C 23,5 km/h (4 Bft)
13.03.2021 20:10 5,9 C 7,0 C 5,3 C 5,2 C 2,7 C 0,0 C 74 % 77 % 1002,4 hPa 0,0 l/m 14,8 km/h (3 Bft) S-SO 157 0 min 1,6 C -1,1 C 20,4 km/h (4 Bft)
13.03.2021 20:15 5,7 C 7,0 C 5,1 C 5,1 C 3,1 C 0,0 C 74 % 77 % 1002,4 hPa 0,0 l/m 12,4 km/h (3 Bft) NW 315 0 min 1,4 C -0,1 C 20,6 km/h (4 Bft)
13.03.2021 20:20 5,5 C 7,0 C 5,0 C 5,0 C 3,4 C 0,0 C 74 % 77 % 1002,4 hPa 0,0 l/m 8,5 km/h (2 Bft) W 270 0 min 1,2 C 1,1 C 11,3 km/h (2 Bft)
13.03.2021 20:25 5,5 C 7,0 C 4,9 C 5,0 C 3,3 C 0,0 C 74 % 77 % 1002,4 hPa 0,0 l/m 8,7 km/h (2 Bft) SW 225 0 min 1,2 C 0,9 C 15,4 km/h (3 Bft)
13.03.2021 20:30 5,4 C 7,0 C 4,8 C 4,8 C 3,7 C 0,0 C 74 % 76 % 1002,0 hPa 0,0 l/m 6,8 km/h (2 Bft) SW 225 0 min 1,1 C 2,0 C 9,7 km/h (2 Bft)
13.03.2021 20:35 5,5 C 7,0 C 4,8 C 4,9 C 3,6 C 0,0 C 74 % 77 % 1002,0 hPa 0,0 l/m 7,2 km/h (2 Bft) NW 315 0 min 1,2 C 1,7 C 13,0 km/h (3 Bft)
13.03.2021 20:40 5,3 C 7,0 C 4,7 C 4,8 C 3,0 C 0,0 C 74 % 78 % 1002,0 hPa 0,0 l/m 8,0 km/h (2 Bft) W-SW 247 0 min 1,0 C 0,8 C 2,6 km/h (1 Bft)
13.03.2021 20:45 5,2 C 7,0 C 4,5 C 4,5 C 3,1 C 0,0 C 74 % 78 % 1002,0 hPa 0,0 l/m 6,4 km/h (2 Bft) O-NO 67 0 min 1,0 C 1,4 C 4,8 km/h (1 Bft)
13.03.2021 20:50 5,1 C 7,0 C 4,3 C 4,5 C 3,4 C 0,0 C 75 % 79 % 1002,6 hPa 0,0 l/m 4,5 km/h (1 Bft) S-SO 157 0 min 1,0 C 3,4 C 5,5 km/h (1 Bft)
13.03.2021 20:55 4,8 C 7,0 C 4,2 C 4,4 C 3,6 C 0,0 C 75 % 80 % 1002,6 hPa 0,0 l/m 3,9 km/h (1 Bft) N-NW 337 0 min 0,8 C 3,6 C 1,9 km/h (1 Bft)
13.03.2021 21:00 4,7 C 7,0 C 4,1 C 4,3 C 3,5 C 0,0 C 76 % 81 % 1002,6 hPa 0,0 l/m 3,5 km/h (1 Bft) S-SO 157 0 min 0,8 C 3,5 C 3,4 km/h (1 Bft)
13.03.2021 21:05 4,7 C 7,0 C 4,0 C 4,1 C 2,9 C 0,0 C 77 % 81 % 1002,6 hPa 0,0 l/m 4,5 km/h (1 Bft) SO 135 0 min 1,0 C 2,9 C 14,5 km/h (3 Bft)
13.03.2021 21:10 4,7 C 7,0 C 3,9 C 4,0 C 2,7 C 0,0 C 77 % 82 % 1002,6 hPa 0,0 l/m 4,8 km/h (1 Bft) SW 225 0 min 1,0 C 1,6 C 5,8 km/h (2 Bft)
13.03.2021 21:15 4,6 C 6,9 C 3,9 C 3,9 C 2,6 C 0,0 C 78 % 82 % 1002,6 hPa 0,0 l/m 5,1 km/h (1 Bft) S 180 0 min 1,1 C 1,3 C 16,3 km/h (3 Bft)
13.03.2021 21:20 4,7 C 6,9 C 3,9 C 4,2 C 3,3 C 0,0 C 78 % 82 % 1002,6 hPa 0,0 l/m 3,7 km/h (1 Bft) SW 225 0 min 1,2 C 3,3 C 6,6 km/h (2 Bft)
13.03.2021 21:25 4,6 C 6,9 C 3,9 C 4,3 C 3,7 C 0,0 C 78 % 82 % 1002,6 hPa 0,0 l/m 2,9 km/h (1 Bft) W-SW 247 0 min 1,1 C 3,7 C 3,1 km/h (1 Bft)
13.03.2021 21:30 4,6 C 6,9 C 3,9 C 4,3 C 3,8 C 0,0 C 78 % 82 % 1002,5 hPa 0,0 l/m 2,4 km/h (1 Bft) S-SO 157 0 min 1,1 C 3,8 C 2,1 km/h (1 Bft)
13.03.2021 21:35 4,6 C 6,9 C 3,9 C 4,3 C 3,6 C 0,0 C 78 % 82 % 1002,5 hPa 0,0 l/m 3,2 km/h (1 Bft) S 180 0 min 1,1 C 3,6 C 3,4 km/h (1 Bft)
13.03.2021 21:40 4,7 C 6,9 C 3,9 C 4,2 C 3,2 C 0,0 C 79 % 82 % 1002,5 hPa 0,0 l/m 4,0 km/h (1 Bft) S 180 0 min 1,4 C 3,2 C 2,3 km/h (1 Bft)
13.03.2021 21:45 4,6 C 6,9 C 4,0 C 4,0 C 2,9 C 0,0 C 79 % 82 % 1002,5 hPa 0,0 l/m 4,7 km/h (1 Bft) W-NW 292 0 min 1,3 C 1,8 C 10,0 km/h (2 Bft)
13.03.2021 21:50 4,8 C 6,9 C 4,1 C 4,2 C 2,9 C 0,0 C 79 % 82 % 1002,4 hPa 0,0 l/m 5,5 km/h (1 Bft) S-SO 157 0 min 1,5 C 1,5 C 9,5 km/h (2 Bft)
13.03.2021 21:55 4,8 C 6,9 C 4,2 C 4,1 C 2,7 C 0,0 C 78 % 81 % 1002,4 hPa 0,0 l/m 6,3 km/h (2 Bft) S-SW 202 0 min 1,3 C 1,0 C 10,3 km/h (2 Bft)
13.03.2021 22:00 4,9 C 6,9 C 4,2 C 4,3 C 3,1 C 0,0 C 78 % 81 % 1002,4 hPa 0,0 l/m 5,3 km/h (1 Bft) S-SO 157 0 min 1,4 C 1,8 C 11,7 km/h (2 Bft)
13.03.2021 22:05 4,9 C 6,9 C 4,2 C 4,3 C 3,1 C 0,0 C 77 % 81 % 1002,4 hPa 0,0 l/m 5,3 km/h (1 Bft) S-SO 157 0 min 1,2 C 1,8 C 15,0 km/h (3 Bft)
13.03.2021 22:10 4,9 C 6,9 C 4,2 C 4,5 C 3,6 C 0,0 C 77 % 81 % 1002,4 hPa 0,0 l/m 4,2 km/h (1 Bft) SW 225 0 min 1,2 C 3,6 C 16,7 km/h (3 Bft)
13.03.2021 22:15 5,1 C 6,8 C 4,3 C 4,7 C 3,9 C 0,0 C 77 % 80 % 1002,4 hPa 0,0 l/m 3,5 km/h (1 Bft) W-NW 292 0 min 1,4 C 3,9 C 8,5 km/h (2 Bft)
13.03.2021 22:20 5,1 C 6,8 C 4,3 C 4,8 C 4,1 C 0,0 C 77 % 80 % 1002,4 hPa 0,0 l/m 3,2 km/h (1 Bft) SW 225 0 min 1,4 C 4,1 C 1,9 km/h (1 Bft)
13.03.2021 22:25 5,1 C 6,8 C 4,3 C 4,7 C 3,9 C 0,0 C 77 % 80 % 1002,4 hPa 0,0 l/m 3,9 km/h (1 Bft) S 180 0 min 1,4 C 3,9 C 7,7 km/h (2 Bft)
13.03.2021 22:30 5,2 C 6,8 C 4,3 C 4,5 C 3,2 C 0,0 C 76 % 80 % 1002,4 hPa 0,0 l/m 5,8 km/h (2 Bft) W-SW 247 0 min 1,3 C 1,7 C 9,7 km/h (2 Bft)
13.03.2021 22:35 5,2 C 6,8 C 4,3 C 4,5 C 3,2 C 0,0 C 76 % 80 % 1002,4 hPa 0,0 l/m 6,0 km/h (2 Bft) NW 315 0 min 1,3 C 1,7 C 1,8 km/h (1 Bft)
13.03.2021 22:40 5,1 C 6,8 C 4,3 C 4,3 C 2,7 C 0,0 C 76 % 80 % 1002,4 hPa 0,0 l/m 7,4 km/h (2 Bft) W 270 0 min 1,2 C 0,6 C 8,2 km/h (2 Bft)
13.03.2021 22:45 5,1 C 6,8 C 4,3 C 4,3 C 2,7 C 0,0 C 75 % 79 % 1002,4 hPa 0,0 l/m 7,4 km/h (2 Bft) SO 135 0 min 1,0 C 0,6 C 10,1 km/h (2 Bft)
13.03.2021 22:50 5,1 C 6,8 C 4,2 C 4,5 C 3,2 C 0,0 C 75 % 79 % 1002,8 hPa 0,0 l/m 5,8 km/h (2 Bft) S 180 0 min 1,0 C 1,7 C 10,3 km/h (2 Bft)
13.03.2021 22:55 5,1 C 6,8 C 4,2 C 4,4 C 2,9 C 0,0 C 75 % 79 % 1002,8 hPa 0,0 l/m 6,0 km/h (2 Bft) S 180 0 min 1,0 C 1,3 C 16,4 km/h (3 Bft)
13.03.2021 23:00 4,9 C 6,8 C 4,1 C 4,2 C 2,9 C 0,0 C 75 % 79 % 1002,8 hPa 0,0 l/m 5,6 km/h (1 Bft) SO 135 0 min 0,8 C 1,5 C 6,4 km/h (2 Bft)
13.03.2021 23:05 4,8 C 6,8 C 4,0 C 4,3 C 3,3 C 0,0 C 75 % 79 % 1002,8 hPa 0,0 l/m 4,5 km/h (1 Bft) SW 225 0 min 0,8 C 3,3 C 3,7 km/h (1 Bft)
13.03.2021 23:10 4,8 C 6,8 C 4,0 C 4,3 C 3,2 C 0,0 C 75 % 79 % 1002,5 hPa 0,0 l/m 4,7 km/h (1 Bft) SO 135 0 min 0,8 C 2,2 C 6,4 km/h (2 Bft)
13.03.2021 23:15 4,8 C 6,7 C 3,9 C 4,1 C 2,8 C 0,0 C 75 % 80 % 1002,5 hPa 0,0 l/m 5,3 km/h (1 Bft) S-SW 202 0 min 0,8 C 1,5 C 5,0 km/h (1 Bft)
13.03.2021 23:20 4,7 C 6,7 C 3,8 C 4,1 C 2,8 C 0,0 C 76 % 80 % 1002,5 hPa 0,0 l/m 4,7 km/h (1 Bft) S-SO 157 0 min 0,8 C 1,7 C 9,2 km/h (2 Bft)
13.03.2021 23:25 4,5 C 6,7 C 3,7 C 4,0 C 3,0 C 0,0 C 76 % 80 % 1002,5 hPa 0,0 l/m 4,2 km/h (1 Bft) S-SO 157 0 min 0,6 C 3,0 C 16,1 km/h (3 Bft)
13.03.2021 23:30 4,5 C 6,7 C 3,7 C 3,9 C 2,7 C 0,0 C 77 % 81 % 1002,8 hPa 0,0 l/m 4,2 km/h (1 Bft) S 180 0 min 0,8 C 2,7 C 3,1 km/h (1 Bft)
13.03.2021 23:35 4,4 C 6,7 C 3,7 C 3,9 C 3,0 C 0,0 C 77 % 81 % 1002,8 hPa 0,0 l/m 3,7 km/h (1 Bft) S-SW 202 0 min 0,7 C 3,0 C 2,9 km/h (1 Bft)
13.03.2021 23:40 4,4 C 6,7 C 3,7 C 4,0 C 3,1 C 0,0 C 77 % 81 % 1002,8 hPa 0,0 l/m 3,5 km/h (1 Bft) S 180 0 min 0,7 C 3,1 C 6,6 km/h (2 Bft)
13.03.2021 23:45 4,5 C 6,7 C 3,6 C 4,1 C 3,2 C 0,0 C 77 % 81 % 1002,8 hPa 0,0 l/m 3,4 km/h (1 Bft) O-SO 112 0 min 0,8 C 3,2 C 9,0 km/h (2 Bft)
13.03.2021 23:50 4,4 C 6,7 C 3,6 C 4,0 C 3,2 C 0,0 C 77 % 81 % 1002,8 hPa 0,0 l/m 3,2 km/h (1 Bft) S-SW 202 0 min 0,7 C 3,2 C 12,2 km/h (2 Bft)
13.03.2021 23:55 4,4 C 6,7 C 3,6 C 4,0 C 3,2 C 0,0 C 78 % 82 % 1002,8 hPa 0,0 l/m 3,4 km/h (1 Bft) W 270 0 min 0,9 C 3,2 C 3,9 km/h (1 Bft)
_ Min-Zeit 01:10 06:55 01:05 00:45 00:40 00:00 13:10 13:00 14:50 - 01:10 - - - 23:25 20:10 01:00
Minimum _ 4,0 C 6,3 C 3,6 C 3,4 C 1,6 C 0,0 C 62 % 61 % 999,8 hPa - 0,3 km/h (0 Bft) - - - 0,6 C -1,1 C 0,0 km/h (0 Bft)
_ Max-Zeit 13:00 16:10 13:00 13:00 13:00 14:45 01:35 01:15 00:10 00:00 16:40 - - 00:00 15:20 13:00 13:00
Maximum _ 10,7 C 7,2 C 11,2 C 12,2 C 11,9 C 1,7 C 85 % 90 % 1008,2 hPa 0,0 l/m 16,9 km/h
S-SW (3 Bft)
- - 0 min 4,6 C 11,9 C 42,8 km/h
S (6 Bft)
Durchschnitt _ 6,7 C 6,7 C 6,4 C 6,7 C 6,0 C 0,2 C 74 % 77 % 1003,6 hPa #0,0 l/m 6,7 km/h (2 Bft) S - #0 min. 2,4 C 5,1 C 10,6 km/h (2 Bft)
2021 www.wetterstation-wechselburg.de